Weather in Kodiak

United States     57°48′03″N   152°23′04″W
temp.,
°C
wind,
m/s
gust,
m/s
humid.,
%
clouds,
%
prec.,
mm/h
press.,
hPa
HPBL,
m
18 may, tue
tue1801:00+7wsw22726 0.0 101715
04:00+6wnw117397 0.0 101810
07:00+7wnw117385 0.0 101811
10:00+9n1164100 0.0 1019241
13:00+11e215774 0.0 1019639
16:00+11ese2259100 0.0 1018644
19:00+11nne116185 0.0 1018491
22:00+8ne117241 0.0 101891
19 may, wed
wed1901:00+6ssw3482100 0.0 1019169
04:00+5ssw3580100 0.0 1018227
07:00+5s4783100 0.0 1018609
10:00+5sse5984100 0.3 1018960
13:00+4se71297100 3.9 10161009
16:00+4se81397100 9.3 10151084
19:00+5ese81197100 2.9 10131010
22:00+5ese61097100 4.4 1012848
20 may, thu
thu2001:00+5ese61098100 1.8 1011780
04:00+5e71199100 5.1 1008796
07:00+5ene71299100 5.6 1006858
10:00+5ene81398100 13.3 1004919
13:00+6e81298100 9.6 1002895
16:00+6ene61099100 17.9 999658
19:00+6ese3599100 5.6 998289
22:00+6sse4697100 6.7 999376
21 may, fri
fri2101:00+5s3690100 0.1 1002509
04:00+5se3492100 0.3 1003375
07:00+5se3695100 1.4 1003753
10:00+5se4794100 3.1 1003860
13:00+6ese3693100 1.0 1003767
16:00+6ese3493100 1.7 1003503
19:00+6e2395100 0.8 1003339
22:00+5ene2395100 1.9 1005211
22 may, sat
sat2201:00+5n2397100 2.8 1006269
04:00+5nnw4696100 5.4 1007521
07:00+5nnw4791100 1.2 1009958
10:00+5nw3794100 2.5 1012880
13:00+6wnw249098 0.4 1014664
16:00+8w237533 0.4 1016530
19:00+9nw236582 0.1 1016713
22:00+8nnw127274 0.2 101728